FWI40J LFPO-TFFR

Flight info

Callsign FWI40J
Flight time N/A
Altitude 36000
Route LGL UN491 OTOFE DCT ALUTA DCT TAKAS/M085F360 DCT OMOKO DCT 4730N02000W 45N030W 4030N04000W/M085F380 34N050W 30N055W 24N059W/M085F400 DCT BNJEE/N0486F400 DCT BOSET BOSET2A
Aircraft A35K/H-SDE2E3GHIJ3J4J5LM1ORWXY/LB1D1

Departure

Time N/A
Airport Paris-Orly Airport (LFPO)

Arrival

Time 2026-04-25 23:41
Airport Maryse Condé International Airport (TFFR)
Time Latitude Longitude Altitude Speed Heading
2026-04-25 20:06 35.29715 -48.22910 37804 ft 387 kts 236°
2026-04-25 20:06 35.27944 -48.25389 37804 ft 387 kts 236°
2026-04-25 20:07 35.24404 -48.30352 37813 ft 386 kts 236°
2026-04-25 20:07 35.20887 -48.35255 37813 ft 386 kts 236°
2026-04-25 20:08 35.17322 -48.40233 37815 ft 388 kts 236°
2026-04-25 20:08 35.13792 -48.45148 37813 ft 387 kts 236°
2026-04-25 20:09 35.10232 -48.50100 37813 ft 387 kts 236°
2026-04-25 20:09 35.06675 -48.55037 37813 ft 387 kts 236°
2026-04-25 20:10 35.03121 -48.59966 37817 ft 387 kts 236°
2026-04-25 20:10 34.99564 -48.64892 37820 ft 387 kts 236°
2026-04-25 20:11 34.95998 -48.69821 37824 ft 386 kts 236°
2026-04-25 20:11 34.92439 -48.74730 37824 ft 386 kts 236°
2026-04-25 20:12 34.88878 -48.79638 37824 ft 386 kts 236°
2026-04-25 20:12 34.85921 -48.83707 37821 ft 386 kts 236°
2026-04-25 20:13 34.81790 -48.89386 37827 ft 385 kts 236°
2026-04-25 20:13 34.78231 -48.94274 37823 ft 385 kts 236°
2026-04-25 20:14 34.74670 -48.99159 37823 ft 385 kts 236°
2026-04-25 20:14 34.71118 -49.04025 37819 ft 385 kts 236°
2026-04-25 20:15 34.67560 -49.08893 37820 ft 385 kts 236°
2026-04-25 20:15 34.64006 -49.13748 37823 ft 384 kts 236°
2026-04-25 20:16 34.60461 -49.18582 37823 ft 382 kts 236°
2026-04-25 20:16 34.56920 -49.23404 37821 ft 382 kts 236°
2026-04-25 20:17 34.53400 -49.28182 37825 ft 382 kts 236°
2026-04-25 20:17 34.49856 -49.32983 37824 ft 382 kts 236°
2026-04-25 20:18 34.46319 -49.37784 37818 ft 381 kts 236°
2026-04-25 20:18 34.42781 -49.42573 37824 ft 380 kts 236°
2026-04-25 20:19 34.39261 -49.47330 37825 ft 379 kts 236°
2026-04-25 20:19 34.35770 -49.52046 37830 ft 378 kts 236°
2026-04-25 20:20 34.32264 -49.56800 37834 ft 378 kts 236°
2026-04-25 20:20 34.28747 -49.61547 37831 ft 379 kts 236°
2026-04-25 20:21 34.25222 -49.66276 37831 ft 377 kts 235°
2026-04-25 20:21 34.21717 -49.70968 37830 ft 376 kts 236°
2026-04-25 20:22 34.19407 -49.74073 37830 ft 376 kts 235°
2026-04-25 20:22 34.14722 -49.80340 37832 ft 374 kts 236°
2026-04-25 20:23 34.11249 -49.84997 37830 ft 376 kts 235°
2026-04-25 20:23 34.07746 -49.89672 37829 ft 375 kts 236°
2026-04-25 20:24 34.04246 -49.94340 37835 ft 375 kts 235°
2026-04-25 20:24 34.00746 -49.98997 37832 ft 374 kts 235°
2026-04-25 20:25 33.97257 -50.03655 37833 ft 374 kts 236°
2026-04-25 20:25 33.93773 -50.08320 37831 ft 374 kts 236°
2026-04-25 20:26 33.90286 -50.12977 37832 ft 375 kts 236°
2026-04-25 20:26 33.86819 -50.17616 37839 ft 374 kts 236°
2026-04-25 20:27 33.83332 -50.22268 37840 ft 373 kts 236°
2026-04-25 20:27 33.79831 -50.26913 37841 ft 373 kts 236°
2026-04-25 20:28 33.76343 -50.31546 37841 ft 373 kts 236°
2026-04-25 20:28 33.72858 -50.36196 37840 ft 375 kts 236°
2026-04-25 20:29 33.69379 -50.40809 37847 ft 375 kts 236°
2026-04-25 20:29 33.65873 -50.45436 37861 ft 374 kts 236°
2026-04-25 20:30 33.62366 -50.50069 37885 ft 374 kts 236°
2026-04-25 20:30 33.58858 -50.54719 37901 ft 376 kts 236°
2026-04-25 20:31 33.55344 -50.59361 37917 ft 376 kts 236°
2026-04-25 20:31 33.51827 -50.63998 37938 ft 375 kts 236°
2026-04-25 20:32 33.48310 -50.68620 37941 ft 375 kts 236°
2026-04-25 20:32 33.44824 -50.73201 37939 ft 374 kts 236°
2026-04-25 20:33 33.41313 -50.77806 37946 ft 374 kts 236°
2026-04-25 20:33 33.38965 -50.80879 37947 ft 374 kts 236°
2026-04-25 20:34 33.34296 -50.86995 37950 ft 373 kts 236°
2026-04-25 20:34 33.30786 -50.91587 37945 ft 374 kts 236°
2026-04-25 20:35 33.27299 -50.96136 37944 ft 373 kts 236°
2026-04-25 20:35 33.23791 -51.00713 37938 ft 373 kts 236°
2026-04-25 20:36 33.20279 -51.05280 37938 ft 373 kts 236°
2026-04-25 20:36 33.16776 -51.09848 37947 ft 373 kts 236°
2026-04-25 20:37 33.13263 -51.14404 37945 ft 373 kts 236°
2026-04-25 20:37 33.09749 -51.18955 37939 ft 373 kts 236°
2026-04-25 20:38 33.06227 -51.23508 37945 ft 373 kts 236°
2026-04-25 20:38 33.02717 -51.28053 37978 ft 372 kts 236°
2026-04-25 20:39 32.99211 -51.32596 37988 ft 373 kts 236°
2026-04-25 20:39 32.96878 -51.35610 37999 ft 373 kts 236°
2026-04-25 20:40 32.92186 -51.41659 38017 ft 373 kts 236°
2026-04-25 20:40 32.88666 -51.46192 38017 ft 373 kts 236°
2026-04-25 20:41 32.85734 -51.49958 38017 ft 373 kts 236°
2026-04-25 20:41 32.82207 -51.54482 38019 ft 373 kts 236°
2026-04-25 20:42 32.78678 -51.59015 38018 ft 373 kts 236°
2026-04-25 20:42 32.75138 -51.63548 38017 ft 374 kts 236°
2026-04-25 20:43 32.71618 -51.68051 38017 ft 374 kts 236°
2026-04-25 20:43 32.68081 -51.72577 38018 ft 373 kts 236°
2026-04-25 20:44 32.64539 -51.77100 38017 ft 374 kts 236°
2026-04-25 20:44 32.60996 -51.81622 38017 ft 374 kts 236°
2026-04-25 20:45 32.57444 -51.86142 38009 ft 374 kts 236°
2026-04-25 20:45 32.53894 -51.90655 38008 ft 374 kts 236°
2026-04-25 20:46 32.50336 -51.95175 38008 ft 375 kts 236°
2026-04-25 20:46 32.46800 -51.99659 38008 ft 375 kts 236°
2026-04-25 20:47 32.43242 -52.04166 38008 ft 374 kts 235°
2026-04-25 20:47 32.39688 -52.08663 38008 ft 373 kts 235°
2026-04-25 20:48 32.36137 -52.13151 38009 ft 374 kts 236°
2026-04-25 20:48 32.32577 -52.17646 38008 ft 374 kts 236°
2026-04-25 20:49 32.29013 -52.22142 38010 ft 374 kts 236°
2026-04-25 20:49 32.25451 -52.26627 38008 ft 374 kts 236°
2026-04-25 20:50 32.21883 -52.31112 38008 ft 375 kts 236°
2026-04-25 20:50 32.18334 -52.35568 38008 ft 374 kts 236°
2026-04-25 20:51 32.14768 -52.40043 38008 ft 374 kts 235°
2026-04-25 20:51 32.11201 -52.44515 38008 ft 374 kts 235°
2026-04-25 20:52 32.08237 -52.48225 38008 ft 373 kts 235°
2026-04-25 20:52 32.04070 -52.53433 38008 ft 373 kts 235°
2026-04-25 20:53 32.00506 -52.57881 38008 ft 373 kts 235°
2026-04-25 20:53 31.96933 -52.62338 38009 ft 375 kts 235°
2026-04-25 20:54 31.93339 -52.66817 38008 ft 377 kts 235°
2026-04-25 20:54 31.89724 -52.71311 38009 ft 377 kts 235°
2026-04-25 20:55 31.86137 -52.75766 38001 ft 377 kts 235°
2026-04-25 20:55 31.82531 -52.80241 37984 ft 377 kts 235°
2026-04-25 20:56 31.78916 -52.84721 37960 ft 377 kts 235°
2026-04-25 20:56 31.75295 -52.89203 37948 ft 378 kts 234°
2026-04-25 20:57 31.71672 -52.93681 37932 ft 378 kts 234°
2026-04-25 20:57 31.68049 -52.98157 37912 ft 378 kts 234°
2026-04-25 20:58 31.64446 -53.02598 37896 ft 378 kts 234°
2026-04-25 20:58 31.60814 -53.07074 37865 ft 379 kts 234°
2026-04-25 20:59 31.57176 -53.11549 37867 ft 379 kts 234°
2026-04-25 20:59 31.53534 -53.16028 37871 ft 379 kts 234°
2026-04-25 21:00 31.51116 -53.18995 37870 ft 379 kts 234°
2026-04-25 21:01 31.44443 -53.27175 37867 ft 379 kts 234°
2026-04-25 21:01 31.40798 -53.31632 37864 ft 379 kts 234°
2026-04-25 21:02 31.37149 -53.36092 37871 ft 379 kts 234°
2026-04-25 21:02 31.33503 -53.40545 37871 ft 379 kts 234°
2026-04-25 21:03 31.29849 -53.45000 37886 ft 380 kts 234°
2026-04-25 21:03 31.26188 -53.49459 37887 ft 380 kts 234°
2026-04-25 21:04 31.22533 -53.53924 37876 ft 380 kts 232°
2026-04-25 21:04 31.18864 -53.58382 37874 ft 380 kts 232°
2026-04-25 21:05 31.15212 -53.62802 37867 ft 380 kts 232°
2026-04-25 21:05 31.11533 -53.67253 37878 ft 381 kts 232°
2026-04-25 21:06 31.07847 -53.71715 37875 ft 381 kts 232°
2026-04-25 21:06 31.04163 -53.76174 37873 ft 382 kts 232°
2026-04-25 21:07 31.00469 -53.80631 37865 ft 382 kts 232°
2026-04-25 21:07 30.96771 -53.85092 37883 ft 383 kts 232°
2026-04-25 21:08 30.93087 -53.89532 37887 ft 383 kts 232°
2026-04-25 21:08 30.89369 -53.94006 37887 ft 384 kts 232°
2026-04-25 21:09 30.83783 -54.00720 37886 ft 385 kts 232°
2026-04-25 21:09 30.80055 -54.05194 37887 ft 385 kts 231°
2026-04-25 21:10 30.76345 -54.09638 37889 ft 386 kts 231°
2026-04-25 21:10 30.72605 -54.14115 37885 ft 386 kts 231°
2026-04-25 21:11 30.68858 -54.18596 37887 ft 387 kts 231°
2026-04-25 21:11 30.65104 -54.23079 37886 ft 387 kts 231°
2026-04-25 21:12 30.61343 -54.27564 37890 ft 387 kts 231°
2026-04-25 21:12 30.58213 -54.31293 37899 ft 387 kts 231°
2026-04-25 21:13 30.53807 -54.36535 37898 ft 388 kts 231°
2026-04-25 21:13 30.50034 -54.41020 37894 ft 388 kts 231°
2026-04-25 21:14 30.46284 -54.45473 37893 ft 388 kts 231°
2026-04-25 21:14 30.42502 -54.49957 37898 ft 389 kts 231°
2026-04-25 21:15 30.38715 -54.54439 37895 ft 389 kts 231°
2026-04-25 21:15 30.34926 -54.58924 37893 ft 389 kts 231°
2026-04-25 21:16 30.31135 -54.63404 37897 ft 389 kts 231°
2026-04-25 21:16 30.27339 -54.67883 37900 ft 389 kts 231°
2026-04-25 21:17 30.23547 -54.72350 37893 ft 389 kts 231°
2026-04-25 21:17 30.19777 -54.76793 37898 ft 389 kts 231°
2026-04-25 21:18 30.15961 -54.81284 37905 ft 389 kts 231°
2026-04-25 21:18 30.12182 -54.85721 37906 ft 389 kts 231°
2026-04-25 21:19 30.08383 -54.90177 37906 ft 390 kts 231°
2026-04-25 21:19 30.04577 -54.94639 37906 ft 390 kts 231°
2026-04-25 21:20 30.02023 -54.97622 37906 ft 390 kts 230°
2026-04-25 21:20 29.96223 -55.02714 37906 ft 401 kts 219°
2026-04-25 21:21 29.91465 -55.06129 37906 ft 404 kts 218°
2026-04-25 21:21 29.86654 -55.09502 37906 ft 404 kts 218°
2026-04-25 21:22 29.81853 -55.12882 37906 ft 404 kts 219°
2026-04-25 21:22 29.77053 -55.16276 37906 ft 404 kts 219°
2026-04-25 21:23 29.72261 -55.19668 37905 ft 404 kts 219°
2026-04-25 21:23 29.67457 -55.23062 37906 ft 405 kts 218°
2026-04-25 21:24 29.62658 -55.26448 37906 ft 405 kts 218°
2026-04-25 21:24 29.57887 -55.29808 37909 ft 405 kts 218°
2026-04-25 21:25 29.53087 -55.33186 37915 ft 404 kts 218°
2026-04-25 21:25 29.48284 -55.36566 37915 ft 405 kts 218°
2026-04-25 21:26 29.43487 -55.39937 37916 ft 405 kts 218°
2026-04-25 21:26 29.38684 -55.43306 37915 ft 405 kts 218°
2026-04-25 21:27 29.33878 -55.46677 37916 ft 405 kts 218°
2026-04-25 21:27 29.29061 -55.50049 37916 ft 406 kts 218°
2026-04-25 21:28 29.24246 -55.53414 37915 ft 406 kts 218°
2026-04-25 21:28 29.19454 -55.56762 37914 ft 406 kts 218°
2026-04-25 21:29 29.14628 -55.60128 37916 ft 406 kts 218°
2026-04-25 21:29 29.09806 -55.63489 37915 ft 406 kts 218°
2026-04-25 21:30 29.04970 -55.66857 37914 ft 407 kts 218°
2026-04-25 21:30 29.00943 -55.69659 37916 ft 408 kts 218°
2026-04-25 21:31 28.96094 -55.73030 37916 ft 408 kts 218°
2026-04-25 21:31 28.91238 -55.76401 37915 ft 408 kts 218°
2026-04-25 21:32 28.86377 -55.79769 37915 ft 408 kts 218°
2026-04-25 21:32 28.81545 -55.83112 37916 ft 408 kts 218°
2026-04-25 21:33 28.76688 -55.86471 37916 ft 409 kts 218°
2026-04-25 21:33 28.71820 -55.89835 37915 ft 409 kts 218°
2026-04-25 21:34 28.66952 -55.93196 37915 ft 410 kts 218°
2026-04-25 21:34 28.62073 -55.96560 37920 ft 410 kts 218°
2026-04-25 21:35 28.57192 -55.99925 37923 ft 410 kts 218°
2026-04-25 21:35 28.52302 -56.03291 37921 ft 411 kts 217°
2026-04-25 21:36 28.47413 -56.06650 37921 ft 410 kts 217°
2026-04-25 21:36 28.42525 -56.10006 37927 ft 411 kts 217°
2026-04-25 21:37 28.38460 -56.12790 37924 ft 411 kts 217°
2026-04-25 21:37 28.32727 -56.16715 37923 ft 411 kts 217°
2026-04-25 21:38 28.27827 -56.20071 37929 ft 411 kts 217°
2026-04-25 21:38 28.22917 -56.23426 37931 ft 412 kts 217°
2026-04-25 21:39 28.18034 -56.26757 37934 ft 412 kts 217°
2026-04-25 21:39 28.13120 -56.30109 37934 ft 412 kts 217°
2026-04-25 21:40 28.08201 -56.33460 37934 ft 412 kts 217°
2026-04-25 21:40 28.03288 -56.36804 37933 ft 412 kts 217°
2026-04-25 21:41 27.98373 -56.40145 37933 ft 412 kts 217°
2026-04-25 21:41 27.93457 -56.43481 37934 ft 412 kts 217°
2026-04-25 21:42 27.88547 -56.46813 37934 ft 412 kts 217°
2026-04-25 21:42 27.83634 -56.50142 37934 ft 411 kts 217°
2026-04-25 21:43 27.78754 -56.53445 37934 ft 411 kts 217°
2026-04-25 21:43 27.73846 -56.56763 37934 ft 411 kts 217°
2026-04-25 21:44 27.68943 -56.60076 37934 ft 410 kts 217°
2026-04-25 21:45 27.61606 -56.65025 37932 ft 409 kts 217°
2026-04-25 21:45 27.56711 -56.68323 37934 ft 410 kts 217°
2026-04-25 21:46 27.51813 -56.71619 37932 ft 409 kts 217°
2026-04-25 21:46 27.46924 -56.74906 37942 ft 410 kts 217°
2026-04-25 21:47 27.42036 -56.78187 37944 ft 408 kts 217°
2026-04-25 21:47 27.37157 -56.81459 37939 ft 408 kts 217°
2026-04-25 21:48 27.32284 -56.84722 37945 ft 407 kts 217°
2026-04-25 21:48 27.27410 -56.87988 37950 ft 407 kts 217°
2026-04-25 21:49 27.22570 -56.91226 37940 ft 407 kts 217°
2026-04-25 21:49 27.17702 -56.94480 37946 ft 408 kts 217°
2026-04-25 21:50 27.12826 -56.97733 37950 ft 408 kts 217°
2026-04-25 21:50 27.07948 -57.00985 37947 ft 407 kts 217°
2026-04-25 21:51 27.03075 -57.04230 37945 ft 407 kts 217°
2026-04-25 21:51 26.98205 -57.07474 37940 ft 407 kts 217°
2026-04-25 21:52 26.93339 -57.10706 37950 ft 406 kts 217°
2026-04-25 21:52 26.88472 -57.13936 37938 ft 406 kts 217°
2026-04-25 21:53 26.83635 -57.17144 37946 ft 406 kts 217°
2026-04-25 21:53 26.78783 -57.20361 37941 ft 405 kts 217°
2026-04-25 21:54 26.73931 -57.23574 37938 ft 405 kts 217°
2026-04-25 21:54 26.69069 -57.26784 37938 ft 406 kts 217°
2026-04-25 21:55 26.64205 -57.30000 37938 ft 406 kts 217°
2026-04-25 21:55 26.59371 -57.33192 37943 ft 405 kts 217°
2026-04-25 21:56 26.54513 -57.36394 37941 ft 405 kts 217°
2026-04-25 21:56 26.49659 -57.39593 37947 ft 405 kts 217°
2026-04-25 21:57 26.44793 -57.42791 37946 ft 405 kts 217°
2026-04-25 21:57 26.39932 -57.45987 37946 ft 405 kts 217°
2026-04-25 21:58 26.35078 -57.49176 37944 ft 405 kts 217°
2026-04-25 21:58 26.30223 -57.52360 37945 ft 404 kts 217°
2026-04-25 21:59 26.25371 -57.55541 37944 ft 404 kts 217°
2026-04-25 21:59 26.20553 -57.58694 37940 ft 404 kts 217°
2026-04-25 22:00 26.13282 -57.63453 37950 ft 404 kts 217°
2026-04-25 22:00 26.08418 -57.66630 37937 ft 404 kts 217°
2026-04-25 22:01 26.03570 -57.69793 37944 ft 404 kts 217°
2026-04-25 22:01 25.99545 -57.72416 37944 ft 403 kts 217°
2026-04-25 22:02 25.93910 -57.76091 37941 ft 404 kts 217°
2026-04-25 22:02 25.89035 -57.79265 37942 ft 403 kts 217°
2026-04-25 22:03 25.84190 -57.82413 37944 ft 404 kts 217°
2026-04-25 22:03 25.79369 -57.85541 37941 ft 404 kts 217°
2026-04-25 22:04 25.74516 -57.88690 37940 ft 404 kts 217°
2026-04-25 22:04 25.69655 -57.91842 37949 ft 404 kts 217°
2026-04-25 22:05 25.64833 -57.94964 37950 ft 404 kts 217°
2026-04-25 22:05 25.59973 -57.98108 37946 ft 404 kts 217°
2026-04-25 22:06 25.55113 -58.01250 37939 ft 404 kts 217°
2026-04-25 22:06 25.50286 -58.04367 37941 ft 404 kts 217°
2026-04-25 22:07 25.46221 -58.06989 37938 ft 404 kts 217°
2026-04-25 22:07 25.40569 -58.10632 37940 ft 404 kts 217°
2026-04-25 22:08 25.35710 -58.13760 37943 ft 404 kts 217°
2026-04-25 22:08 25.30853 -58.16887 37950 ft 404 kts 217°
2026-04-25 22:09 25.26025 -58.19988 37938 ft 404 kts 217°
2026-04-25 22:09 25.21167 -58.23106 37938 ft 404 kts 217°
2026-04-25 22:10 25.16311 -58.26222 37949 ft 403 kts 217°
2026-04-25 22:10 25.11456 -58.29332 37938 ft 403 kts 217°
2026-04-25 22:11 25.06605 -58.32439 37935 ft 403 kts 217°
2026-04-25 22:11 25.01750 -58.35547 37935 ft 403 kts 217°
2026-04-25 22:12 24.96902 -58.38649 37934 ft 403 kts 217°
2026-04-25 22:12 24.93689 -58.40701 37934 ft 403 kts 217°
2026-04-25 22:13 24.87222 -58.44824 37931 ft 403 kts 217°
2026-04-25 22:13 24.82367 -58.47918 37935 ft 404 kts 217°
2026-04-25 22:14 24.77511 -58.51009 37932 ft 403 kts 216°
2026-04-25 22:14 24.72651 -58.54102 37934 ft 403 kts 216°
2026-04-25 22:15 24.67796 -58.57188 37934 ft 403 kts 216°
2026-04-25 22:16 24.60505 -58.61817 37934 ft 403 kts 216°
2026-04-25 22:16 24.56463 -58.64381 37934 ft 403 kts 216°
2026-04-25 22:17 24.50781 -58.67982 37934 ft 403 kts 216°
2026-04-25 22:17 24.46740 -58.70541 37934 ft 403 kts 216°
2026-04-25 22:18 24.41877 -58.73618 37933 ft 403 kts 216°
2026-04-25 22:18 24.36225 -58.77190 37935 ft 403 kts 216°
2026-04-25 22:19 24.32150 -58.79761 37931 ft 403 kts 216°
2026-04-25 22:19 24.27289 -58.82829 37935 ft 403 kts 216°
2026-04-25 22:20 24.22427 -58.85896 37934 ft 403 kts 216°
2026-04-25 22:20 24.17585 -58.88943 37934 ft 404 kts 216°
2026-04-25 22:21 24.12714 -58.92007 37934 ft 403 kts 216°
2026-04-25 22:21 24.07847 -58.95070 37934 ft 403 kts 216°
2026-04-25 22:22 24.02958 -58.98105 37928 ft 406 kts 214°
2026-04-25 22:22 24.00364 -58.99386 38041 ft 413 kts 208°
2026-04-25 22:22 23.97589 -59.00318 38327 ft 420 kts 201°
2026-04-25 22:22 23.94715 -59.00953 38648 ft 421 kts 199°
2026-04-25 22:23 23.91824 -59.01494 38955 ft 420 kts 199°
2026-04-25 22:23 23.88936 -59.01989 39217 ft 420 kts 198°
2026-04-25 22:23 23.86044 -59.02470 39440 ft 420 kts 198°
2026-04-25 22:23 23.83187 -59.02944 39613 ft 421 kts 198°
2026-04-25 22:24 23.80286 -59.03434 39713 ft 422 kts 199°
2026-04-25 22:24 23.77382 -59.03930 39868 ft 423 kts 199°
2026-04-25 22:24 23.74465 -59.04433 39929 ft 424 kts 199°
2026-04-25 22:25 23.68632 -59.05440 39935 ft 423 kts 199°
2026-04-25 22:25 23.62813 -59.06446 39934 ft 423 kts 199°
2026-04-25 22:26 23.56987 -59.07454 39934 ft 423 kts 199°
2026-04-25 22:26 23.51164 -59.08460 39934 ft 424 kts 199°
2026-04-25 22:27 23.45344 -59.09465 39933 ft 424 kts 199°
2026-04-25 22:27 23.39553 -59.10464 39932 ft 424 kts 198°
2026-04-25 22:28 23.33719 -59.11468 39932 ft 424 kts 198°
2026-04-25 22:28 23.27884 -59.12470 39933 ft 424 kts 198°
2026-04-25 22:29 23.22055 -59.13472 39934 ft 425 kts 198°
2026-04-25 22:29 23.16206 -59.14477 39932 ft 425 kts 198°
2026-04-25 22:30 23.07445 -59.15980 39933 ft 425 kts 198°
2026-04-25 22:30 23.02583 -59.16812 39932 ft 425 kts 198°
2026-04-25 22:31 22.95755 -59.17983 39933 ft 425 kts 198°
2026-04-25 22:31 22.89912 -59.18981 39933 ft 425 kts 198°
2026-04-25 22:32 22.84073 -59.19980 39933 ft 425 kts 198°
2026-04-25 22:32 22.78225 -59.20979 39935 ft 425 kts 198°
2026-04-25 22:33 22.72411 -59.21971 39933 ft 426 kts 198°
2026-04-25 22:33 22.66552 -59.22969 39934 ft 426 kts 198°
2026-04-25 22:34 22.60690 -59.23967 39935 ft 426 kts 198°
2026-04-25 22:34 22.54843 -59.24962 39934 ft 426 kts 198°
2026-04-25 22:35 22.48984 -59.25960 39933 ft 426 kts 198°
2026-04-25 22:35 22.43124 -59.26956 39934 ft 427 kts 198°
2026-04-25 22:36 22.37261 -59.27949 39933 ft 426 kts 198°
2026-04-25 22:36 22.31399 -59.28943 39935 ft 426 kts 198°
2026-04-25 22:37 22.25528 -59.29938 39934 ft 427 kts 198°
2026-04-25 22:37 22.19666 -59.30932 39935 ft 426 kts 198°
2026-04-25 22:38 22.13807 -59.31924 39936 ft 426 kts 198°
2026-04-25 22:38 22.07940 -59.32915 39935 ft 426 kts 198°
2026-04-25 22:39 22.02114 -59.33899 39933 ft 426 kts 198°
2026-04-25 22:39 21.96246 -59.34889 39933 ft 427 kts 198°
2026-04-25 22:40 21.90358 -59.35884 39934 ft 429 kts 198°
2026-04-25 22:40 21.84458 -59.36879 39933 ft 429 kts 198°
2026-04-25 22:41 21.78546 -59.37874 39925 ft 429 kts 198°
2026-04-25 22:41 21.72641 -59.38865 39923 ft 429 kts 198°
2026-04-25 22:42 21.66737 -59.39857 39924 ft 430 kts 198°
2026-04-25 22:42 21.60823 -59.40851 39924 ft 430 kts 198°
2026-04-25 22:43 21.54949 -59.41839 39925 ft 430 kts 198°
2026-04-25 22:43 21.49038 -59.42830 39925 ft 430 kts 197°
2026-04-25 22:44 21.43128 -59.43817 39924 ft 429 kts 197°
2026-04-25 22:44 21.37222 -59.44806 39925 ft 430 kts 197°
2026-04-25 22:45 21.31312 -59.45794 39926 ft 430 kts 197°
2026-04-25 22:45 21.25398 -59.46782 39924 ft 430 kts 197°
2026-04-25 22:46 21.19482 -59.47770 39926 ft 430 kts 197°
2026-04-25 22:46 21.13571 -59.48756 39927 ft 430 kts 197°
2026-04-25 22:47 21.07648 -59.49744 39932 ft 431 kts 197°
2026-04-25 22:47 21.01718 -59.50731 39937 ft 431 kts 197°
2026-04-25 22:48 20.95775 -59.51720 39953 ft 432 kts 197°
2026-04-25 22:48 20.89875 -59.52701 39950 ft 432 kts 197°
2026-04-25 22:49 20.83933 -59.53687 39954 ft 432 kts 197°
2026-04-25 22:49 20.77991 -59.54674 39955 ft 432 kts 196°
2026-04-25 22:50 20.72044 -59.55660 39950 ft 432 kts 196°
2026-04-25 22:50 20.66100 -59.56646 39952 ft 432 kts 196°
2026-04-25 22:51 20.60196 -59.57625 39953 ft 432 kts 196°
2026-04-25 22:51 20.54249 -59.58609 39951 ft 432 kts 196°
2026-04-25 22:52 20.48306 -59.59593 39955 ft 432 kts 196°
2026-04-25 22:52 20.43363 -59.60409 39950 ft 432 kts 196°
2026-04-25 22:53 20.36424 -59.61552 39952 ft 432 kts 196°
2026-04-25 22:53 20.30485 -59.62532 39950 ft 432 kts 196°
2026-04-25 22:54 20.24538 -59.63514 39955 ft 432 kts 196°
2026-04-25 22:54 20.18642 -59.64485 39951 ft 431 kts 195°
2026-04-25 22:55 20.12708 -59.65460 39951 ft 431 kts 195°
2026-04-25 22:55 20.06775 -59.66437 39952 ft 432 kts 195°
2026-04-25 22:56 20.00836 -59.67414 39951 ft 432 kts 195°
2026-04-25 22:56 19.94889 -59.68390 39950 ft 432 kts 195°
2026-04-25 22:57 19.88945 -59.69365 39955 ft 432 kts 195°
2026-04-25 22:57 19.83032 -59.70334 39955 ft 432 kts 195°
2026-04-25 22:58 19.77086 -59.71308 39951 ft 432 kts 195°
2026-04-25 22:58 19.71129 -59.72283 39955 ft 433 kts 195°
2026-04-25 22:59 19.65171 -59.73259 39951 ft 433 kts 195°
2026-04-25 22:59 19.59215 -59.74234 39953 ft 433 kts 195°
2026-04-25 23:00 19.53254 -59.75208 39953 ft 434 kts 195°
2026-04-25 23:00 19.47318 -59.76179 39950 ft 435 kts 195°
2026-04-25 23:01 19.41328 -59.77154 39952 ft 435 kts 195°
2026-04-25 23:01 19.35342 -59.78129 39953 ft 436 kts 195°
2026-04-25 23:02 19.29343 -59.79102 39954 ft 436 kts 195°
2026-04-25 23:02 19.23339 -59.80080 39954 ft 437 kts 195°
2026-04-25 23:03 19.17325 -59.81060 39953 ft 438 kts 195°
2026-04-25 23:03 19.11302 -59.82040 39954 ft 439 kts 195°
2026-04-25 23:04 19.06276 -59.82856 39951 ft 440 kts 195°
2026-04-25 23:04 18.99201 -59.84003 39952 ft 440 kts 195°
2026-04-25 23:05 18.93182 -59.84980 39950 ft 441 kts 195°
2026-04-25 23:05 18.87116 -59.85960 39952 ft 441 kts 194°
2026-04-25 23:06 18.81040 -59.86941 39953 ft 442 kts 194°
2026-04-25 23:06 18.75146 -59.87896 39953 ft 442 kts 194°
2026-04-25 23:07 18.69062 -59.88883 39960 ft 443 kts 194°
2026-04-25 23:07 18.62964 -59.89869 39959 ft 443 kts 194°
2026-04-25 23:08 18.57887 -59.90688 39962 ft 444 kts 194°
2026-04-25 23:08 18.51780 -59.91673 39963 ft 444 kts 194°
2026-04-25 23:09 18.45667 -59.92658 39960 ft 444 kts 194°
2026-04-25 23:09 18.39553 -59.93643 39960 ft 445 kts 194°
2026-04-25 23:10 18.33434 -59.94629 39961 ft 445 kts 194°
2026-04-25 23:10 18.27306 -59.95615 39959 ft 445 kts 194°
2026-04-25 23:11 18.21182 -59.96600 39962 ft 446 kts 194°
2026-04-25 23:11 18.15109 -59.97576 39953 ft 446 kts 194°
2026-04-25 23:12 18.08977 -59.98559 39955 ft 446 kts 194°
2026-04-25 23:12 18.02905 -59.99625 39951 ft 442 kts 200°
2026-04-25 23:13 17.97493 -60.02347 39959 ft 428 kts 220°
2026-04-25 23:13 17.92921 -60.06346 39949 ft 428 kts 223°
2026-04-25 23:14 17.88389 -60.10419 39955 ft 429 kts 223°
2026-04-25 23:14 17.83850 -60.14493 39959 ft 429 kts 223°
2026-04-25 23:15 17.79316 -60.18559 39950 ft 429 kts 223°
2026-04-25 23:15 17.77049 -60.20589 39725 ft 429 kts 223°
2026-04-25 23:15 17.74777 -60.22624 39476 ft 429 kts 222°
2026-04-25 23:16 17.72505 -60.24657 39222 ft 430 kts 222°
2026-04-25 23:16 17.70232 -60.26692 38971 ft 430 kts 222°
2026-04-25 23:16 17.67955 -60.28731 38722 ft 430 kts 222°
2026-04-25 23:16 17.65676 -60.30769 38473 ft 431 kts 222°
2026-04-25 23:17 17.63418 -60.32787 38225 ft 432 kts 222°
2026-04-25 23:17 17.61128 -60.34834 37969 ft 432 kts 222°
2026-04-25 23:17 17.58837 -60.36881 37727 ft 433 kts 222°
2026-04-25 23:17 17.56541 -60.38933 37477 ft 433 kts 222°
2026-04-25 23:18 17.54247 -60.40982 37154 ft 432 kts 222°
2026-04-25 23:18 17.51974 -60.43010 36610 ft 428 kts 222°
2026-04-25 23:18 17.49717 -60.45024 35981 ft 426 kts 222°
2026-04-25 23:18 17.47459 -60.47037 35315 ft 425 kts 222°
2026-04-25 23:19 17.45215 -60.49039 34623 ft 425 kts 222°
2026-04-25 23:19 17.42954 -60.51055 33871 ft 426 kts 222°
2026-04-25 23:19 17.40691 -60.53071 33102 ft 427 kts 222°
2026-04-25 23:19 17.38453 -60.55065 32331 ft 428 kts 222°
2026-04-25 23:20 17.36179 -60.57091 31533 ft 431 kts 222°
2026-04-25 23:20 17.33891 -60.59128 30710 ft 434 kts 223°
2026-04-25 23:20 17.31542 -60.61219 29846 ft 439 kts 223°
2026-04-25 23:20 17.29245 -60.63263 28981 ft 441 kts 223°
2026-04-25 23:21 17.26909 -60.65339 28311 ft 438 kts 222°
2026-04-25 23:21 17.24600 -60.67391 27698 ft 433 kts 222°
2026-04-25 23:21 17.22361 -60.69489 27054 ft 430 kts 227°
2026-04-25 23:21 17.20343 -60.71812 26382 ft 428 kts 230°
2026-04-25 23:22 17.18412 -60.74171 25747 ft 426 kts 230°
2026-04-25 23:22 17.16490 -60.76531 25114 ft 425 kts 230°
2026-04-25 23:22 17.14578 -60.78873 24485 ft 422 kts 230°
2026-04-25 23:23 17.10786 -60.83504 23239 ft 415 kts 230°
2026-04-25 23:23 17.08911 -60.85791 22619 ft 413 kts 230°
2026-04-25 23:23 17.07049 -60.88061 22000 ft 410 kts 230°
2026-04-25 23:23 17.05200 -60.90317 21380 ft 407 kts 230°
2026-04-25 23:24 17.03366 -60.92550 20764 ft 404 kts 230°
2026-04-25 23:24 17.01543 -60.94769 20145 ft 401 kts 230°
2026-04-25 23:24 16.99735 -60.96970 19534 ft 397 kts 230°
2026-04-25 23:24 16.97964 -60.99125 18908 ft 395 kts 230°
2026-04-25 23:25 16.96180 -61.01296 18280 ft 393 kts 230°
2026-04-25 23:25 16.94407 -61.03452 17652 ft 390 kts 230°
2026-04-25 23:25 16.92649 -61.05590 17020 ft 387 kts 230°
2026-04-25 23:25 16.90898 -61.07718 16394 ft 384 kts 230°
2026-04-25 23:26 16.89168 -61.09819 15756 ft 380 kts 230°
2026-04-25 23:26 16.87450 -61.11905 15113 ft 376 kts 230°
2026-04-25 23:26 16.85746 -61.13969 14488 ft 373 kts 229°
2026-04-25 23:26 16.84061 -61.16011 13871 ft 370 kts 230°
2026-04-25 23:27 16.82388 -61.18038 13244 ft 367 kts 229°
2026-04-25 23:27 16.80748 -61.20024 12617 ft 364 kts 230°
2026-04-25 23:27 16.79088 -61.22043 11983 ft 360 kts 230°
2026-04-25 23:27 16.77482 -61.23995 11369 ft 358 kts 229°
2026-04-25 23:28 16.75860 -61.25962 10801 ft 354 kts 229°
2026-04-25 23:28 16.74297 -61.27857 10659 ft 335 kts 229°
2026-04-25 23:28 16.72816 -61.29653 10549 ft 317 kts 229°
2026-04-25 23:28 16.71414 -61.31352 10447 ft 301 kts 229°
2026-04-25 23:29 16.70084 -61.32964 10333 ft 286 kts 229°
2026-04-25 23:29 16.68810 -61.34505 10217 ft 274 kts 229°
2026-04-25 23:29 16.67591 -61.35981 10104 ft 265 kts 229°
2026-04-25 23:29 16.66383 -61.37442 9980 ft 267 kts 229°
2026-04-25 23:30 16.65147 -61.38937 9876 ft 281 kts 229°
2026-04-25 23:30 16.63858 -61.40494 9717 ft 283 kts 229°
2026-04-25 23:30 16.62568 -61.42054 9156 ft 285 kts 229°
2026-04-25 23:30 16.61273 -61.43619 8723 ft 285 kts 228°
2026-04-25 23:31 16.59974 -61.45188 8367 ft 285 kts 228°
2026-04-25 23:31 16.58686 -61.46745 8023 ft 283 kts 228°
2026-04-25 23:31 16.57417 -61.48278 7665 ft 282 kts 228°
2026-04-25 23:31 16.56140 -61.49823 7342 ft 281 kts 228°
2026-04-25 23:32 16.54864 -61.51365 7034 ft 279 kts 228°
2026-04-25 23:32 16.53596 -61.52892 6700 ft 278 kts 228°
2026-04-25 23:32 16.52333 -61.54416 6363 ft 277 kts 227°
2026-04-25 23:32 16.51077 -61.55928 6028 ft 275 kts 228°
2026-04-25 23:33 16.49825 -61.57442 5687 ft 274 kts 228°
2026-04-25 23:33 16.48582 -61.58945 5361 ft 273 kts 227°
2026-04-25 23:33 16.47380 -61.60462 5104 ft 267 kts 231°
2026-04-25 23:33 16.46351 -61.61980 4978 ft 253 kts 233°
2026-04-25 23:34 16.45375 -61.63476 4861 ft 239 kts 234°
2026-04-25 23:34 16.44479 -61.64860 4746 ft 230 kts 233°
2026-04-25 23:34 16.43586 -61.66234 4577 ft 229 kts 233°
2026-04-25 23:34 16.42696 -61.67600 4313 ft 227 kts 233°
2026-04-25 23:35 16.41790 -61.68942 4042 ft 225 kts 229°
2026-04-25 23:35 16.40591 -61.69942 3791 ft 220 kts 200°
2026-04-25 23:35 16.39109 -61.70119 3635 ft 216 kts 171°
2026-04-25 23:35 16.37641 -61.69792 3506 ft 216 kts 164°
2026-04-25 23:36 16.36190 -61.69387 3357 ft 215 kts 163°
2026-04-25 23:36 16.34763 -61.68992 3217 ft 207 kts 164°
2026-04-25 23:36 16.33401 -61.68625 3078 ft 199 kts 164°
2026-04-25 23:36 16.32068 -61.68267 2935 ft 198 kts 164°
2026-04-25 23:37 16.30798 -61.67726 2902 ft 197 kts 143°
2026-04-25 23:37 16.29958 -61.66643 2871 ft 189 kts 119°
2026-04-25 23:37 16.29400 -61.65457 2703 ft 179 kts 116°
2026-04-25 23:37 16.28876 -61.64278 2290 ft 181 kts 116°
2026-04-25 23:38 16.28414 -61.63090 1954 ft 171 kts 106°
2026-04-25 23:38 16.28187 -61.61916 1723 ft 160 kts 102°
2026-04-25 23:38 16.27974 -61.60809 1479 ft 152 kts 104°
2026-04-25 23:38 16.27759 -61.59766 1247 ft 143 kts 103°
2026-04-25 23:39 16.27563 -61.58775 997 ft 136 kts 104°
2026-04-25 23:39 16.27389 -61.57823 775 ft 133 kts 102°
2026-04-25 23:39 16.27215 -61.56889 563 ft 133 kts 103°
2026-04-25 23:39 16.27040 -61.55942 376 ft 132 kts 100°
2026-04-25 23:40 16.26875 -61.55008 148 ft 131 kts 101°
2026-04-25 23:40 16.26703 -61.54060 41 ft 133 kts 102°
2026-04-25 23:40 16.26535 -61.53202 32 ft 105 kts 101°
2026-04-25 23:40 16.26419 -61.52591 34 ft 67 kts 100°
2026-04-25 23:41 16.26368 -61.52314 44 ft 14 kts 93°
2026-04-25 23:41 16.26410 -61.52233 45 ft 11 kts 14°
2026-04-25 23:41 16.26501 -61.52215 43 ft 15 kts 11°
2026-04-25 23:41 16.26591 -61.52197 36 ft 17 kts 11°
2026-04-25 23:42 16.26698 -61.52188 30 ft 6 kts 334°
2026-04-25 23:42 16.26713 -61.52204 30 ft 9 kts 309°
2026-04-25 23:42 16.26746 -61.52317 29 ft 23 kts 279°
2026-04-25 23:42 16.26776 -61.52476 29 ft 20 kts 281°
2026-04-25 23:43 16.26802 -61.52607 29 ft 10 kts 283°
2026-04-25 23:43 16.26817 -61.52666 29 ft 9 kts 298°
2026-04-25 23:43 16.26870 -61.52675 29 ft 8 kts
2026-04-25 23:43 16.26895 -61.52672 29 ft 0 kts